Rome, NY

4:37 AM EDT on July 27, 2017 (GMT -0400)
Griffiss

Weather History for KRME - September, 2013

Change the Weather History Date:

Sunday, September 1, 2013

  Actual Average Record
Temperature  
Mean Temperature 76 °F -  
Max Temperature 84 °F 74 °F 90 °F (2010)
Min Temperature 69 °F 53 °F 44 °F (1991)
Cooling Degree Days 10    
Growing Degree Days 26 (Base 50)    
Moisture  
Dew Point 67 °F    
Average Humidity 82    
Maximum Humidity 93    
Minimum Humidity 56    
Precipitation  
Precipitation 0.00 in - - ()
Sea Level Pressure  
Sea Level Pressure 29.83 in    
Wind  
Wind Speed 2 mph (ESE)    
Max Wind Speed 8 mph    
Max Gust Speed -    
Visibility 8 miles    
Events      
Averages and records for this station are not official NWS values.
T = Trace of Precipitation, MM = Missing Value Source: NWS Daily Summary

Daily Weather History Graph

Daily Weather History Graph

Search for Another Location

Airport or City:

Trip Planner

Search our weather history database for the weather conditions in past years. The results will help you decide how hot, cold, wet, or windy it might be!

Date:

Astronomy

Sep. 01, 2013 Rise Set
Actual Time 6:26 AM EDT 7:36 PM EDT
Civil Twilight 5:56 AM EDT 8:05 PM EDT
Nautical Twilight 5:21 AM EDT 8:40 PM EDT
Astronomical Twilight 4:44 AM EDT 9:17 PM EDT
Moon 2:41 AM EDT (9/1) 5:15 PM EDT (9/1)
Length of Visible Light 14h 08m
Length of Day
13h 10m
Waning Crescent, 14% of the Moon is Illuminated
Sep 1
Waning Crescent
Sep 5
New
Sep 12
First Quarter
Sep 19
Full
Sep 26
Last Quarter

Hourly Weather History & Observations

Time (EDT) Temp. Heat Index Dew Point Humidity Pressure Visibility Wind Dir Wind Speed Gust Speed Precip Events Conditions
12:08 AM 70.0 °F - 68.0 °F 93% 29.85 in 7.0 mi NW 4.6 mph - N/A   Overcast
12:26 AM 70.0 °F - 68.0 °F 93% 29.84 in 6.0 mi WNW 3.5 mph - N/A   Overcast
12:39 AM 70.0 °F - 68.0 °F 93% 29.84 in 7.0 mi Calm Calm - N/A   Overcast
12:53 AM 70.0 °F - 68.0 °F 93% 29.83 in 7.0 mi Calm Calm - N/A   Overcast
1:04 AM 70.0 °F - 68.0 °F 93% 29.84 in 7.0 mi Calm Calm - N/A   Overcast
1:49 AM 69.8 °F - 66.2 °F 88% 29.82 in 6.0 mi Calm Calm - N/A   Scattered Clouds
1:53 AM 69.1 °F - 66.9 °F 93% 29.81 in 6.0 mi Calm Calm - N/A   Mostly Cloudy
2:39 AM 69.1 °F - 66.9 °F 93% 29.82 in 6.0 mi Calm Calm - N/A   Overcast
2:53 AM 69.1 °F - 66.9 °F 93% 29.82 in 6.0 mi Calm Calm - N/A   Overcast
3:53 AM 70.0 °F - 66.9 °F 90% 29.82 in 7.0 mi Calm Calm - N/A   Overcast
4:44 AM 70.0 °F - 68.0 °F 93% 29.84 in 6.0 mi Calm Calm - N/A   Overcast
4:53 AM 70.0 °F - 68.0 °F 93% 29.83 in 6.0 mi Calm Calm - N/A   Overcast
5:12 AM 70.0 °F - 68.0 °F 93% 29.85 in 7.0 mi Calm Calm - N/A   Overcast
5:35 AM 70.0 °F - 68.0 °F 93% 29.85 in 6.0 mi Calm Calm - N/A   Overcast
5:53 AM 70.0 °F - 66.9 °F 90% 29.84 in 7.0 mi Calm Calm - N/A   Overcast
6:14 AM 69.1 °F - 66.9 °F 93% 29.86 in 6.0 mi Calm Calm - N/A   Overcast
6:35 AM 69.1 °F - 66.9 °F 93% 29.87 in 6.0 mi Calm Calm - N/A   Overcast
6:53 AM 69.1 °F - 66.9 °F 93% 29.86 in 6.0 mi North 3.5 mph - N/A   Overcast
7:53 AM 71.1 °F - 66.9 °F 87% 29.86 in 10.0 mi Calm Calm - N/A   Overcast
8:34 AM 72.0 °F - 66.9 °F 84% 29.86 in 10.0 mi Calm Calm - N/A   Mostly Cloudy
8:53 AM 73.9 °F - 66.9 °F 79% 29.85 in 10.0 mi ESE 4.6 mph - N/A   Scattered Clouds
9:24 AM 73.9 °F - 66.9 °F 79% 29.87 in 10.0 mi SE 5.8 mph - N/A   Mostly Cloudy
9:43 AM 73.9 °F - 68.0 °F 82% 29.87 in 10.0 mi South 5.8 mph - N/A   Overcast
9:53 AM 75.0 °F - 68.0 °F 79% 29.85 in 10.0 mi SE 5.8 mph - N/A   Overcast
10:20 AM 75.9 °F - 66.9 °F 74% 29.87 in 10.0 mi Variable 4.6 mph - N/A   Scattered Clouds
10:53 AM 77.0 °F - 66.9 °F 71% 29.85 in 10.0 mi SSE 8.1 mph - N/A   Scattered Clouds
11:53 AM 79.0 °F - 66.0 °F 64% 29.85 in 10.0 mi SSW 5.8 mph - N/A   Scattered Clouds
12:53 PM 81.0 °F 82.7 °F 64.9 °F 58% 29.83 in 10.0 mi North - - N/A   Clear
1:53 PM 82.9 °F 85.0 °F 66.0 °F 56% 29.82 in 10.0 mi Variable 3.5 mph - N/A   Clear
2:53 PM 82.9 °F 85.0 °F 66.0 °F 56% 29.81 in 10.0 mi SSE 4.6 mph - N/A   Overcast
3:53 PM 82.9 °F 85.4 °F 66.9 °F 58% 29.79 in 10.0 mi East 4.6 mph - N/A   Overcast
4:53 PM 82.0 °F 84.5 °F 66.9 °F 60% 29.80 in 10.0 mi ENE 4.6 mph - N/A   Mostly Cloudy
5:53 PM 82.9 °F 85.8 °F 68.0 °F 60% 29.78 in 10.0 mi ESE 5.8 mph - N/A   Clear
6:53 PM 80.1 °F 82.9 °F 69.1 °F 69% 29.78 in 10.0 mi ESE 4.6 mph - N/A   Clear
7:53 PM 77.0 °F - 69.1 °F 76% 29.79 in 10.0 mi East 3.5 mph - N/A   Mostly Cloudy
8:53 PM 75.0 °F - 69.1 °F 82% 29.79 in 10.0 mi East 5.8 mph - N/A   Partly Cloudy
9:53 PM 73.9 °F - 69.1 °F 85% 29.78 in 10.0 mi East 6.9 mph - N/A   Clear
10:53 PM 73.0 °F - 69.1 °F 87% 29.78 in 9.0 mi East 5.8 mph - N/A   Clear
11:53 PM 73.0 °F - 69.1 °F 87% 29.78 in 8.0 mi East 5.8 mph - N/A   Scattered Clouds